This is the latest recevied weather packets stored in our database for station/object DL6MAA-11. If no packets are shown the sender has not sent any weather packets the latest 10 day(s).
| Time | Temp. | Humidity | Pressure | Rain* | Wind** | Luminosity | Snow |
|---|---|---|---|---|---|---|---|
| 1777900621 | 21.67° C | 45% | 1009.5 hPa | 0 mm | - | 272 W/m² | - |
| 1777900330 | 21.67° C | 44% | 1010.2 hPa | 0 mm | - | 211 W/m² | - |
| 1777900012 | 21.67° C | 43% | 1010.2 hPa | 0 mm | - | 214 W/m² | - |
| 1777899715 | 21.67° C | 44% | 1010.2 hPa | 0 mm | - | 243 W/m² | - |
| 1777899426 | 22.22° C | 43% | 1010.4 hPa | 0 mm | - | 255 W/m² | - |
| 1777899128 | 22.22° C | 44% | 1010.4 hPa | 0 mm | - | 397 W/m² | - |
| 1777898819 | 22.22° C | 43% | 1010.4 hPa | 0 mm | - | 236 W/m² | - |
| 1777898527 | 22.78° C | 42% | 1010.6 hPa | 0 mm | - | 482 W/m² | - |
| 1777898212 | 22.78° C | 42% | 1010.6 hPa | 0 mm | - | 573 W/m² | - |
| 1777897929 | 22.78° C | 44% | 1010.6 hPa | 0 mm | - | 482 W/m² | - |
| 1777897626 | 22.22° C | 42% | 1009.7 hPa | 0 mm | - | 417 W/m² | - |
| 1777897322 | 22.22° C | 44% | 1009.7 hPa | 0 mm | - | 429 W/m² | - |
| 1777897018 | 21.67° C | 45% | 1009.7 hPa | 0 mm | - | 434 W/m² | - |
| 1777896714 | 21.67° C | 44% | 1010.6 hPa | 0 mm | - | 322 W/m² | - |
| 1777896424 | 21.67° C | 44% | 1010.6 hPa | 0 mm | - | 313 W/m² | - |
| 1777896116 | 21.67° C | 44% | 1010.6 hPa | 0 mm | - | 301 W/m² | - |
| 1777895819 | 21.67° C | 44% | 1010.6 hPa | 0 mm | - | 336 W/m² | - |
| 1777895527 | 21.67° C | 45% | 1010.6 hPa | 0 mm | - | 304 W/m² | - |
| 1777895217 | 21.67° C | 44% | 1010.6 hPa | 0 mm | - | 294 W/m² | - |
| 1777894924 | 21.67° C | 44% | 1010.6 hPa | 0 mm | - | 332 W/m² | - |
| 1777894630 | 21.67° C | 44% | 1010.6 hPa | 0 mm | - | 359 W/m² | - |
| 1777894322 | 22.22° C | 44% | 1010.6 hPa | 0 mm | - | 315 W/m² | - |
| 1777894030 | 22.22° C | 46% | 1010.5 hPa | 0 mm | - | 374 W/m² | - |
| 1777893733 | 22.22° C | 43% | 1010.5 hPa | 0 mm | - | 343 W/m² | - |
| 1777893418 | 22.78° C | 44% | 1010.5 hPa | 0 mm | - | 461 W/m² | - |
* Rain since midnight (hover to see other rain measurements)
** Current wind speed in m/s (hover to see current wind gust speed)